,,,PA_Meas_PMT16A,,PR_Meas_QMR101_102,,RH_Meas_QMH101,,SR_Meas_QMS101,,TA_Meas_QMH101,,GenWind,,GenWind,
date,time,status,PA,status,PR,status,RH,status,SR,status,TA,status,DirAvg,status,SpdAvg,
2009-11-28, 00:00:05,VALID,1000.73,VALID,0,VALID,91.4639,VALID,0,VALID,24.4019,VALID,86,VALID,0.649219,
2009-11-28, 00:01:05,VALID,1000.69,VALID,0,VALID,91.5631,VALID,0,VALID,24.4019,VALID,96,VALID,0.675,
2009-11-28, 00:02:05,VALID,1000.71,VALID,0,VALID,91.6241,VALID,0,VALID,24.4428,VALID,109,VALID,1.00977,
2009-11-28, 00:03:05,VALID,1000.68,VALID,0,VALID,91.6775,VALID,0,VALID,24.4623,VALID,117,VALID,0.748438,
2009-11-28, 00:04:05,VALID,1000.68,VALID,0,VALID,91.8683,VALID,0,VALID,24.5013,VALID,131,VALID,0.897266,
2009-11-28, 00:05:05,VALID,1000.69,VALID,0,VALID,91.8911,VALID,0,VALID,24.5209,VALID,137,VALID,0.809375,
2009-11-28, 00:06:05,VALID,1000.71,VALID,0,VALID,91.9674,VALID,0,VALID,24.5404,VALID,137,VALID,0.778906,
2009-11-28, 00:07:05,VALID,1000.7,VALID,0,VALID,91.9522,VALID,0,VALID,24.5404,VALID,137,VALID,0.443359,
2009-11-28, 00:08:05,VALID,1000.7,VALID,0,VALID,91.9217,VALID,0,VALID,24.519,VALID,137,VALID,0.261328,
2009-11-28, 00:09:05,VALID,1000.64,VALID,0,VALID,91.8911,VALID,0,VALID,24.519,VALID,137,VALID,0,
2009-11-28, 00:10:05,VALID,1000.62,VALID,0,VALID,91.792,VALID,0,VALID,24.5209,VALID,137,VALID,0,
2009-11-28, 00:11:05,VALID,1000.57,VALID,0,VALID,91.6851,VALID,0,VALID,24.5013,VALID,137,VALID,0,
2009-11-28, 00:12:05,VALID,1000.52,VALID,0,VALID,91.6012,VALID,0,VALID,24.4995,VALID,137,VALID,0,
2009-11-28, 00:13:05,VALID,1000.52,VALID,0,VALID,91.5326,VALID,0,VALID,24.5013,VALID,137,VALID,0,
2009-11-28, 00:14:05,VALID,1000.49,VALID,0,VALID,91.502,VALID,0,VALID,24.4604,VALID,137,VALID,0,
2009-11-28, 00:15:05,VALID,1000.49,VALID,0,VALID,91.5097,VALID,0,VALID,24.4818,VALID,137,VALID,0,
2009-11-28, 00:16:05,VALID,1000.48,VALID,0,VALID,91.5173,VALID,0,VALID,24.4818,VALID,137,VALID,0,
2009-11-28, 00:17:05,VALID,1000.44,VALID,0,VALID,91.6241,VALID,0,VALID,24.5013,VALID,137,VALID,0,
2009-11-28, 00:18:05,VALID,1000.45,VALID,0,VALID,91.6928,VALID,0,VALID,24.4995,VALID,137,VALID,0,
2009-11-28, 00:19:05,VALID,1000.4,VALID,0,VALID,91.7691,VALID,0,VALID,24.5209,VALID,137,VALID,0,
2009-11-28, 00:20:05,VALID,1000.39,VALID,0,VALID,91.8148,VALID,0,VALID,24.519,VALID,137,VALID,0,
2009-11-28, 00:21:05,VALID,1000.38,VALID,0,VALID,91.8377,VALID,0,VALID,24.5404,VALID,137,VALID,0,
2009-11-28, 00:22:05,VALID,1000.39,VALID,0,VALID,91.8377,VALID,0,VALID,24.5209,VALID,137,VALID,0,
2009-11-28, 00:23:05,VALID,1000.41,VALID,0,VALID,91.8759,VALID,0,VALID,24.5209,VALID,137,VALID,0,
2009-11-28, 00:24:05,VALID,1000.41,VALID,0,VALID,91.914,VALID,0,VALID,24.5209,VALID,137,VALID,0,
2009-11-28, 00:25:05,VALID,1000.38,VALID,0,VALID,91.9064,VALID,0,VALID,24.5209,VALID,137,VALID,0,
2009-11-28, 00:26:05,VALID,1000.41,VALID,0,VALID,91.9217,VALID,0,VALID,24.5013,VALID,137,VALID,0,
2009-11-28, 00:27:05,VALID,1000.43,VALID,0,VALID,91.9293,VALID,0,VALID,24.5013,VALID,137,VALID,0,
2009-11-28, 00:28:05,VALID,1000.42,VALID,0,VALID,91.9522,VALID,0,VALID,24.4818,VALID,137,VALID,0,
2009-11-28, 00:29:05,VALID,1000.44,VALID,0,VALID,91.9903,VALID,0,VALID,24.4604,VALID,137,VALID,0,
2009-11-28, 00:30:05,VALID,1000.43,VALID,0,VALID,92.0056,VALID,0,VALID,24.4818,VALID,137,VALID,0,
2009-11-28, 00:31:05,VALID,1000.42,VALID,0,VALID,91.998,VALID,0,VALID,24.4409,VALID,137,VALID,0,
2009-11-28, 00:32:05,VALID,1000.39,VALID,0,VALID,92.0132,VALID,0,VALID,24.4623,VALID,137,VALID,0,
2009-11-28, 00:33:05,VALID,1000.37,VALID,0,VALID,92.0056,VALID,0,VALID,24.4214,VALID,137,VALID,0,
2009-11-28, 00:34:05,VALID,1000.36,VALID,0,VALID,92.0056,VALID,0,VALID,24.4428,VALID,137,VALID,0,
2009-11-28, 00:35:05,VALID,1000.37,VALID,0,VALID,92.0437,VALID,0,VALID,24.4019,VALID,137,VALID,0.467578,
2009-11-28, 00:36:05,VALID,1000.36,VALID,0,VALID,92.1277,VALID,0,VALID,24.4233,VALID,137,VALID,0.369531,
2009-11-28, 00:37:05,VALID,1000.35,VALID,0,VALID,92.1582,VALID,0,VALID,24.4019,VALID,137,VALID,0.283984,
2009-11-28, 00:38:05,VALID,1000.34,VALID,0,VALID,92.204,VALID,0,VALID,24.4233,VALID,137,VALID,0.235938,
2009-11-28, 00:39:05,VALID,1000.37,VALID,0,VALID,92.1811,VALID,0,VALID,24.4037,VALID,137,VALID,0.296094,
2009-11-28, 00:40:05,VALID,1000.35,VALID,0,VALID,92.1963,VALID,0,VALID,24.4037,VALID,137,VALID,0.269141,
2009-11-28, 00:41:05,VALID,1000.36,VALID,0,VALID,92.1887,VALID,0,VALID,24.4037,VALID,137,VALID,0,
2009-11-28, 00:42:05,VALID,1000.36,VALID,0,VALID,92.204,VALID,0,VALID,24.3842,VALID,137,VALID,0,
2009-11-28, 00:43:05,VALID,1000.36,VALID,0,VALID,92.1963,VALID,0.112286,VALID,24.3629,VALID,137,VALID,0,
2009-11-28, 00:44:05,VALID,1000.35,VALID,0,VALID,92.204,VALID,0,VALID,24.3433,VALID,137,VALID,0,
2009-11-28, 00:45:05,VALID,1000.36,VALID,0,VALID,92.2345,VALID,0,VALID,24.3433,VALID,137,VALID,0,
2009-11-28, 00:46:05,VALID,1000.34,VALID,0,VALID,92.2497,VALID,0,VALID,24.3647,VALID,137,VALID,0,
2009-11-28, 00:47:05,VALID,1000.33,VALID,0,VALID,92.2574,VALID,0.112286,VALID,24.3647,VALID,137,VALID,0,
2009-11-28, 00:48:05,VALID,1000.34,VALID,0,VALID,92.2574,VALID,0,VALID,24.3433,VALID,137,VALID,0,
2009-11-28, 00:49:05,VALID,1000.33,VALID,0,VALID,92.2803,VALID,0,VALID,24.3238,VALID,137,VALID,0,
2009-11-28, 00:50:05,VALID,1000.3,VALID,0,VALID,92.2955,VALID,0,VALID,24.3257,VALID,137,VALID,0,
2009-11-28, 00:51:05,VALID,1000.32,VALID,0,VALID,92.3108,VALID,0,VALID,24.3043,VALID,126,VALID,0.857813,
2009-11-28, 00:52:05,VALID,1000.34,VALID,0,VALID,92.3566,VALID,0,VALID,24.3257,VALID,125,VALID,1.01016,
2009-11-28, 00:53:05,VALID,1000.32,VALID,0,VALID,92.3184,VALID,0,VALID,24.3062,VALID,127,VALID,0.734766,
2009-11-28, 00:54:05,VALID,1000.32,VALID,0,VALID,92.3108,VALID,0,VALID,24.2848,VALID,131,VALID,0.742969,
2009-11-28, 00:55:05,VALID,1000.29,VALID,0,VALID,92.4557,VALID,0,VALID,24.2848,VALID,132,VALID,0.902734,
2009-11-28, 00:56:05,VALID,1000.32,VALID,0,VALID,92.5168,VALID,0,VALID,24.3238,VALID,132,VALID,0.573047,
2009-11-28, 00:57:05,VALID,1000.32,VALID,0,VALID,92.5397,VALID,0,VALID,24.3238,VALID,132,VALID,0.692969,
2009-11-28, 00:58:05,VALID,1000.27,VALID,0,VALID,92.5778,VALID,0,VALID,24.3238,VALID,130,VALID,0.790234,
2009-11-28, 00:59:05,VALID,1000.25,VALID,0,VALID,92.5626,VALID,0,VALID,24.3238,VALID,130,VALID,0.576953,
2009-11-28, 01:00:05,VALID,1000.24,VALID,0,VALID,92.5931,VALID,0,VALID,24.3433,VALID,130,VALID,0.808594,
2009-11-28, 01:01:05,VALID,1000.22,VALID,0,VALID,92.532,VALID,0,VALID,24.3433,VALID,129,VALID,0.800391,
2009-11-28, 01:02:05,VALID,1000.21,VALID,0,VALID,92.5091,VALID,0,VALID,24.3433,VALID,128,VALID,0.780078,
2009-11-28, 01:03:05,VALID,1000.21,VALID,0,VALID,92.5168,VALID,0,VALID,24.3842,VALID,136,VALID,0.809766,
2009-11-28, 01:04:05,VALID,1000.21,VALID,0,VALID,92.5244,VALID,0,VALID,24.3842,VALID,136,VALID,0.649219,
2009-11-28, 01:05:05,VALID,1000.21,VALID,0,VALID,92.5091,VALID,0,VALID,24.4037,VALID,136,VALID,0.568359,
2009-11-28, 01:06:05,VALID,1000.19,VALID,0,VALID,92.5473,VALID,0,VALID,24.4037,VALID,139,VALID,0.614453,
2009-11-28, 01:07:05,VALID,1000.19,VALID,0,VALID,92.5854,VALID,0,VALID,24.4019,VALID,140,VALID,0.452344,
2009-11-28, 01:08:05,VALID,1000.19,VALID,0,VALID,92.5473,VALID,0,VALID,24.4019,VALID,140,VALID,0.489062,
2009-11-28, 01:09:05,VALID,1000.17,VALID,0,VALID,92.4863,VALID,0,VALID,24.4019,VALID,140,VALID,0.339844,
2009-11-28, 01:10:05,VALID,1000.16,VALID,0,VALID,92.5015,VALID,0.112286,VALID,24.4019,VALID,140,VALID,0.341016,
2009-11-28, 01:11:05,VALID,1000.16,VALID,0,VALID,92.5091,VALID,0,VALID,24.3824,VALID,140,VALID,0.484766,
2009-11-28, 01:12:05,VALID,1000.17,VALID,0,VALID,92.4939,VALID,0,VALID,24.3824,VALID,162,VALID,0.626953,
2009-11-28, 01:13:05,VALID,1000.14,VALID,0,VALID,92.5244,VALID,0,VALID,24.4019,VALID,165,VALID,0.671094,
2009-11-28, 01:14:05,VALID,1000.13,VALID,0,VALID,92.5549,VALID,0,VALID,24.4037,VALID,164,VALID,0.906641,
2009-11-28, 01:15:05,VALID,1000.1,VALID,0,VALID,92.6312,VALID,0,VALID,24.4019,VALID,164,VALID,0.855469,
2009-11-28, 01:16:05,VALID,1000.11,VALID,0,VALID,92.6007,VALID,0.112286,VALID,24.4214,VALID,161,VALID,1.00625,
2009-11-28, 01:17:05,VALID,1000.11,VALID,0,VALID,92.5702,VALID,0,VALID,24.4428,VALID,155,VALID,1.19727,
2009-11-28, 01:18:05,VALID,1000.11,VALID,0,VALID,92.5015,VALID,0,VALID,24.4623,VALID,160,VALID,1.25117,
2009-11-28, 01:19:05,VALID,1000.12,VALID,0,VALID,92.4481,VALID,0,VALID,24.4818,VALID,162,VALID,1.06719,
2009-11-28, 01:20:05,VALID,1000.12,VALID,0,VALID,92.4023,VALID,0,VALID,24.48,VALID,174,VALID,0.784766,
2009-11-28, 01:21:05,VALID,1000.16,VALID,0,VALID,92.3566,VALID,0,VALID,24.5013,VALID,170,VALID,0.865625,
2009-11-28, 01:22:05,VALID,1000.14,VALID,0,VALID,92.3642,VALID,0,VALID,24.4818,VALID,169,VALID,1.01289,
2009-11-28, 01:23:05,VALID,1000.16,VALID,0,VALID,92.3108,VALID,0,VALID,24.4818,VALID,167,VALID,0.594141,
2009-11-28, 01:24:05,VALID,1000.16,VALID,0,VALID,92.326,VALID,0,VALID,24.4818,VALID,167,VALID,0.563281,
2009-11-28, 01:25:05,VALID,1000.15,VALID,0,VALID,92.3413,VALID,0,VALID,24.4818,VALID,154,VALID,0.899609,
2009-11-28, 01:26:05,VALID,1000.17,VALID,0,VALID,92.2726,VALID,0,VALID,24.5013,VALID,149,VALID,0.864062,
2009-11-28, 01:27:05,VALID,1000.15,VALID,0,VALID,92.1658,VALID,0,VALID,24.4604,VALID,157,VALID,0.476172,
2009-11-28, 01:28:05,VALID,1000.14,VALID,0,VALID,92.12,VALID,0,VALID,24.4623,VALID,157,VALID,0.844531,
2009-11-28, 01:29:05,VALID,1000.12,VALID,0,VALID,92.1124,VALID,0,VALID,24.4428,VALID,160,VALID,1.00039,
2009-11-28, 01:30:05,VALID,1000.15,VALID,0,VALID,92.059,VALID,0,VALID,24.4428,VALID,152,VALID,1.0375,
2009-11-28, 01:31:05,VALID,1000.15,VALID,0,VALID,91.9751,VALID,0,VALID,24.4233,VALID,148,VALID,1.00625,
2009-11-28, 01:32:05,VALID,1000.15,VALID,0,VALID,91.9293,VALID,0,VALID,24.4019,VALID,148,VALID,0.816016,
2009-11-28, 01:33:05,VALID,1000.15,VALID,0,VALID,91.8988,VALID,0,VALID,24.3842,VALID,141,VALID,0.892187,
2009-11-28, 01:34:05,VALID,1000.15,VALID,0,VALID,91.853,VALID,0,VALID,24.3647,VALID,141,VALID,0.527734,
2009-11-28, 01:35:05,VALID,1000.11,VALID,0,VALID,91.9445,VALID,0,VALID,24.3452,VALID,140,VALID,0.710156,
2009-11-28, 01:36:05,VALID,1000.1,VALID,0,VALID,91.9598,VALID,0,VALID,24.3257,VALID,138,VALID,0,
2009-11-28, 01:37:05,VALID,1000.09,VALID,0,VALID,91.9827,VALID,0,VALID,24.3062,VALID,137,VALID,0,
2009-11-28, 01:38:05,VALID,1000.07,VALID,0,VALID,92.0056,VALID,0,VALID,24.2866,VALID,137,VALID,0,
2009-11-28, 01:39:05,VALID,1000.08,VALID,0,VALID,92.0666,VALID,0,VALID,24.2866,VALID,137,VALID,0,
2009-11-28, 01:40:05,VALID,1000.06,VALID,0,VALID,92.1277,VALID,0,VALID,24.2671,VALID,137,VALID,0,
2009-11-28, 01:41:05,VALID,1000.1,VALID,0,VALID,92.1048,VALID,0,VALID,24.2458,VALID,137,VALID,0,
2009-11-28, 01:42:05,VALID,1000.11,VALID,0,VALID,92.0971,VALID,0,VALID,24.2671,VALID,137,VALID,0,
2009-11-28, 01:43:05,VALID,1000.06,VALID,0,VALID,92.12,VALID,0,VALID,24.2476,VALID,137,VALID,0,
2009-11-28, 01:44:05,VALID,1000.09,VALID,0,VALID,92.204,VALID,0,VALID,24.2476,VALID,137,VALID,0,
2009-11-28, 01:45:05,VALID,1000.07,VALID,0,VALID,92.2497,VALID,0,VALID,24.2476,VALID,137,VALID,0,
2009-11-28, 01:46:05,VALID,1000.09,VALID,0,VALID,92.2268,VALID,0,VALID,24.2476,VALID,137,VALID,0,
2009-11-28, 01:47:05,VALID,1000.07,VALID,0,VALID,92.2574,VALID,0,VALID,24.2086,VALID,137,VALID,0,
2009-11-28, 01:48:05,VALID,1000.09,VALID,0,VALID,92.3184,VALID,0,VALID,24.2067,VALID,130,VALID,0,
2009-11-28, 01:49:05,VALID,1000.08,VALID,0,VALID,92.3947,VALID,0,VALID,24.2281,VALID,358,VALID,0.662109,
2009-11-28, 01:50:05,VALID,1000.1,VALID,0,VALID,92.4481,VALID,0,VALID,24.2281,VALID,358,VALID,0.614062,
2009-11-28, 01:51:05,VALID,1000.11,VALID,0,VALID,92.471,VALID,0,VALID,24.2086,VALID,356,VALID,0.708203,
2009-11-28, 01:52:05,VALID,1000.09,VALID,0,VALID,92.471,VALID,0,VALID,24.2086,VALID,355,VALID,0.511328,
2009-11-28, 01:53:05,VALID,1000.12,VALID,0,VALID,92.4634,VALID,0,VALID,24.1891,VALID,355,VALID,0.526172,
2009-11-28, 01:54:05,VALID,1000.11,VALID,0,VALID,92.4557,VALID,0,VALID,24.1696,VALID,355,VALID,0.474609,
2009-11-28, 01:55:05,VALID,1000.16,VALID,0,VALID,92.4939,VALID,0,VALID,24.1696,VALID,355,VALID,0.605469,
2009-11-28, 01:56:05,VALID,1000.15,VALID,0,VALID,92.5549,VALID,0,VALID,24.15,VALID,1,VALID,0.671094,
2009-11-28, 01:57:05,VALID,1000.15,VALID,0,VALID,92.5091,VALID,0,VALID,24.1305,VALID,6,VALID,0.585547,
2009-11-28, 01:58:05,VALID,1000.16,VALID,0,VALID,92.4557,VALID,0,VALID,24.0915,VALID,6,VALID,0.549219,
2009-11-28, 01:59:05,VALID,1000.17,VALID,0,VALID,92.532,VALID,0,VALID,24.072,VALID,6,VALID,0.460938,
2009-11-28, 02:00:04,VALID,1000.15,VALID,0,VALID,92.5168,VALID,0,VALID,24.0525,VALID,6,VALID,0.452344,
2009-11-28, 02:01:04,VALID,1000.2,VALID,0,VALID,92.5168,VALID,0,VALID,23.9939,VALID,6,VALID,0.392188,
2009-11-28, 02:02:04,VALID,1000.18,VALID,0,VALID,92.5931,VALID,0,VALID,23.9726,VALID,6,VALID,0.467187,
2009-11-28, 02:03:04,VALID,1000.19,VALID,0,VALID,92.6465,VALID,0,VALID,24.0134,VALID,6,VALID,0.432813,
2009-11-28, 02:04:04,VALID,1000.17,VALID,0,VALID,92.6923,VALID,0,VALID,23.9939,VALID,6,VALID,0.442187,
2009-11-28, 02:05:04,VALID,1000.17,VALID,0,VALID,92.7457,VALID,0,VALID,24.0134,VALID,24,VALID,0.565625,
2009-11-28, 02:06:04,VALID,1000.14,VALID,0,VALID,92.7151,VALID,0,VALID,24.0329,VALID,37,VALID,0.602344,
2009-11-28, 02:07:04,VALID,1000.15,VALID,0,VALID,92.738,VALID,0,VALID,24.0525,VALID,38,VALID,0.682031,
2009-11-28, 02:08:04,VALID,1000.14,VALID,0,VALID,92.677,VALID,0,VALID,24.0311,VALID,38,VALID,0.603516,
2009-11-28, 02:09:04,VALID,1000.17,VALID,0,VALID,92.6694,VALID,0,VALID,24.0525,VALID,37,VALID,0.644141,
2009-11-28, 02:10:04,VALID,1000.11,VALID,0,VALID,92.6312,VALID,0,VALID,24.0915,VALID,37,VALID,0.433984,
2009-11-28, 02:11:04,VALID,1000.12,VALID,0,VALID,92.5168,VALID,0,VALID,24.072,VALID,37,VALID,0.328906,
2009-11-28, 02:12:04,VALID,1000.08,VALID,0,VALID,92.3947,VALID,0,VALID,24.0525,VALID,37,VALID,0.245703,
2009-11-28, 02:13:04,VALID,1000.09,VALID,0,VALID,92.3184,VALID,0,VALID,24.0116,VALID,37,VALID,0.05625,
2009-11-28, 02:14:04,VALID,1000.08,VALID,0,VALID,92.4023,VALID,0,VALID,24.0329,VALID,37,VALID,0,
2009-11-28, 02:15:04,VALID,1000.07,VALID,0,VALID,92.4634,VALID,0,VALID,24.0525,VALID,37,VALID,0,
2009-11-28, 02:16:04,VALID,1000.11,VALID,0,VALID,92.4863,VALID,0,VALID,24.0506,VALID,37,VALID,0,
2009-11-28, 02:17:04,VALID,1000.1,VALID,0,VALID,92.5168,VALID,0,VALID,24.0701,VALID,37,VALID,0,
2009-11-28, 02:18:04,VALID,1000.09,VALID,0,VALID,92.4863,VALID,0,VALID,24.0506,VALID,37,VALID,0,
2009-11-28, 02:19:04,VALID,1000.1,VALID,0,VALID,92.471,VALID,0,VALID,24.072,VALID,37,VALID,0,
2009-11-28, 02:20:04,VALID,1000.12,VALID,0,VALID,92.4176,VALID,0,VALID,24.0506,VALID,37,VALID,0,
2009-11-28, 02:21:04,VALID,1000.12,VALID,0,VALID,92.3718,VALID,0,VALID,24.0329,VALID,38,VALID,0,
2009-11-28, 02:22:04,VALID,1000.12,VALID,0,VALID,92.4328,VALID,0,VALID,24.0329,VALID,38,VALID,0,
2009-11-28, 02:23:04,VALID,1000.09,VALID,0,VALID,92.5015,VALID,0,VALID,24.0311,VALID,38,VALID,0.197266,
2009-11-28, 02:24:04,VALID,1000.09,VALID,0,VALID,92.5397,VALID,0,VALID,24.0329,VALID,38,VALID,0.342969,
2009-11-28, 02:25:04,VALID,1000.08,VALID,0,VALID,92.5626,VALID,0,VALID,24.0311,VALID,38,VALID,0.443359,
2009-11-28, 02:26:04,VALID,1000.08,VALID,0,VALID,92.5168,VALID,0,VALID,24.0525,VALID,45,VALID,0.458984,
2009-11-28, 02:27:04,VALID,1000.07,VALID,0,VALID,92.5473,VALID,0,VALID,24.072,VALID,90,VALID,0.551172,
2009-11-28, 02:28:04,VALID,1000.07,VALID,0,VALID,92.5015,VALID,0,VALID,24.0897,VALID,111,VALID,0.635156,
2009-11-28, 02:29:04,VALID,1000.05,VALID,0,VALID,92.3794,VALID,0,VALID,24.1092,VALID,111,VALID,0.743359,
2009-11-28, 02:30:04,VALID,1000.08,VALID,0,VALID,92.2345,VALID,0,VALID,24.1482,VALID,116,VALID,0.854297,
2009-11-28, 02:31:04,VALID,1000.1,VALID,0,VALID,92.1277,VALID,0,VALID,24.1714,VALID,116,VALID,0.833203,
2009-11-28, 02:32:04,VALID,1000.11,VALID,0,VALID,92.0361,VALID,0,VALID,24.1714,VALID,121,VALID,0.8,
2009-11-28, 02:33:04,VALID,1000.1,VALID,0,VALID,92.0056,VALID,0,VALID,24.1909,VALID,121,VALID,0.701953,
2009-11-28, 02:34:04,VALID,1000.11,VALID,0,VALID,91.9674,VALID,0,VALID,24.1909,VALID,125,VALID,0.632031,
2009-11-28, 02:35:04,VALID,1000.11,VALID,0,VALID,91.9751,VALID,0,VALID,24.1909,VALID,130,VALID,0.726172,
2009-11-28, 02:36:04,VALID,1000.1,VALID,0,VALID,91.9369,VALID,0,VALID,24.1909,VALID,130,VALID,0.691406,
2009-11-28, 02:37:04,VALID,1000.14,VALID,0,VALID,91.8683,VALID,0,VALID,24.1909,VALID,130,VALID,0.609375,
2009-11-28, 02:38:04,VALID,1000.12,VALID,0,VALID,91.792,VALID,0,VALID,24.1909,VALID,130,VALID,0.505078,
2009-11-28, 02:39:04,VALID,1000.1,VALID,0,VALID,91.8072,VALID,0,VALID,24.2104,VALID,130,VALID,0.384766,
2009-11-28, 02:40:04,VALID,1000.09,VALID,0,VALID,91.7309,VALID,0,VALID,24.1909,VALID,130,VALID,0.279297,
2009-11-28, 02:41:04,VALID,1000.09,VALID,0,VALID,91.7233,VALID,0,VALID,24.1714,VALID,130,VALID,0,
2009-11-28, 02:42:04,VALID,1000.07,VALID,0,VALID,91.7767,VALID,0,VALID,24.1714,VALID,127,VALID,0,
2009-11-28, 02:43:04,VALID,1000.07,VALID,0,VALID,91.7843,VALID,0,VALID,24.1305,VALID,124,VALID,0,
2009-11-28, 02:44:04,VALID,1000.05,VALID,0,VALID,91.792,VALID,0,VALID,24.1519,VALID,124,VALID,0,
2009-11-28, 02:45:04,VALID,1000.04,VALID,0,VALID,91.8454,VALID,0,VALID,24.1519,VALID,124,VALID,0,
2009-11-28, 02:46:04,VALID,1000.01,VALID,0,VALID,91.8454,VALID,0,VALID,24.15,VALID,124,VALID,0,
2009-11-28, 02:47:04,VALID,1000.03,VALID,0,VALID,91.8454,VALID,0,VALID,24.111,VALID,124,VALID,0,
2009-11-28, 02:48:04,VALID,1000.04,VALID,0,VALID,91.8377,VALID,0,VALID,24.111,VALID,125,VALID,0,
2009-11-28, 02:49:04,VALID,1000.06,VALID,0,VALID,91.8301,VALID,0,VALID,24.0915,VALID,116,VALID,0,
2009-11-28, 02:50:04,VALID,1000.08,VALID,0,VALID,91.7462,VALID,0,VALID,24.0506,VALID,116,VALID,0,
2009-11-28, 02:51:04,VALID,1000.1,VALID,0,VALID,91.6851,VALID,0,VALID,24.0311,VALID,116,VALID,0,
2009-11-28, 02:52:04,VALID,1000.09,VALID,0,VALID,91.8377,VALID,0,VALID,24.0311,VALID,116,VALID,0,
2009-11-28, 02:53:04,VALID,1000.11,VALID,0,VALID,92.0132,VALID,0,VALID,24.072,VALID,117,VALID,0,
2009-11-28, 02:54:04,VALID,1000.14,VALID,0,VALID,92.0132,VALID,0,VALID,24.072,VALID,117,VALID,0,
2009-11-28, 02:55:04,VALID,1000.13,VALID,0,VALID,91.8377,VALID,0,VALID,24.0116,VALID,117,VALID,0,
2009-11-28, 02:56:04,VALID,1000.12,VALID,0,VALID,91.9293,VALID,0,VALID,24.0134,VALID,105,VALID,0,
2009-11-28, 02:57:04,VALID,1000.16,VALID,0,VALID,92.0819,VALID,0,VALID,24.0116,VALID,104,VALID,0.753906,
2009-11-28, 02:58:04,VALID,1000.16,VALID,0,VALID,91.9445,VALID,0,VALID,24.0329,VALID,92,VALID,0.773047,
2009-11-28, 02:59:04,VALID,1000.18,VALID,0,VALID,91.8454,VALID,0,VALID,23.9939,VALID,92,VALID,0.271094,
2009-11-28, 03:00:04,VALID,1000.2,VALID,0,VALID,91.7691,VALID,0,VALID,23.9549,VALID,92,VALID,0,
2009-11-28, 03:01:04,VALID,1000.21,VALID,0,VALID,91.7157,VALID,0,VALID,23.9354,VALID,92,VALID,0,
2009-11-28, 03:02:04,VALID,1000.22,VALID,0,VALID,91.7767,VALID,0,VALID,23.875,VALID,92,VALID,0,
2009-11-28, 03:03:04,VALID,1000.24,VALID,0,VALID,91.708,VALID,0,VALID,23.8555,VALID,91,VALID,0,
2009-11-28, 03:04:04,VALID,1000.27,VALID,0,VALID,91.8301,VALID,0,VALID,23.8165,VALID,91,VALID,0,
2009-11-28, 03:05:04,VALID,1000.25,VALID,0,VALID,91.8606,VALID,0,VALID,23.8183,VALID,91,VALID,0,
2009-11-28, 03:06:04,VALID,1000.25,VALID,0,VALID,91.9903,VALID,0,VALID,23.8183,VALID,91,VALID,0,
2009-11-28, 03:07:04,VALID,1000.24,VALID,0,VALID,92.12,VALID,0,VALID,23.8183,VALID,91,VALID,0,
2009-11-28, 03:08:04,VALID,1000.25,VALID,0,VALID,92.1811,VALID,0,VALID,23.8378,VALID,91,VALID,0,
2009-11-28, 03:09:04,VALID,1000.23,VALID,0,VALID,92.2268,VALID,0,VALID,23.8378,VALID,91,VALID,0,
2009-11-28, 03:10:04,VALID,1000.26,VALID,0,VALID,92.3566,VALID,0,VALID,23.8378,VALID,91,VALID,0,
2009-11-28, 03:11:04,VALID,1000.24,VALID,0,VALID,92.3566,VALID,0,VALID,23.836,VALID,91,VALID,0,
2009-11-28, 03:12:04,VALID,1000.26,VALID,0,VALID,92.4023,VALID,0,VALID,23.8555,VALID,91,VALID,0,
2009-11-28, 03:13:04,VALID,1000.28,VALID,0,VALID,92.3947,VALID,0,VALID,23.8768,VALID,93,VALID,0,
2009-11-28, 03:14:04,VALID,1000.29,VALID,0,VALID,92.3794,VALID,0,VALID,23.8573,VALID,93,VALID,0,
2009-11-28, 03:15:04,VALID,1000.3,VALID,0,VALID,92.3489,VALID,0,VALID,23.836,VALID,93,VALID,0,
2009-11-28, 03:16:04,VALID,1000.31,VALID,0,VALID,92.3566,VALID,0,VALID,23.8378,VALID,93,VALID,0,
2009-11-28, 03:17:04,VALID,1000.32,VALID,0,VALID,92.41,VALID,0,VALID,23.8378,VALID,93,VALID,0,
2009-11-28, 03:18:04,VALID,1000.33,VALID,0,VALID,92.471,VALID,0,VALID,23.836,VALID,93,VALID,0,
2009-11-28, 03:19:04,VALID,1000.33,VALID,0,VALID,92.4863,VALID,0,VALID,23.8378,VALID,93,VALID,0,
2009-11-28, 03:20:04,VALID,1000.35,VALID,0,VALID,92.326,VALID,0,VALID,23.8183,VALID,93,VALID,0,
2009-11-28, 03:21:04,VALID,1000.36,VALID,0,VALID,92.2116,VALID,0,VALID,23.7597,VALID,93,VALID,0,
2009-11-28, 03:22:04,VALID,1000.37,VALID,0,VALID,92.2726,VALID,0,VALID,23.7402,VALID,93,VALID,0,
2009-11-28, 03:23:04,VALID,1000.38,VALID,0,VALID,92.1582,VALID,0,VALID,23.7012,VALID,93,VALID,0,
2009-11-28, 03:24:04,VALID,1000.39,VALID,0,VALID,92.1734,VALID,0,VALID,23.6622,VALID,93,VALID,0,
2009-11-28, 03:25:04,VALID,1000.42,VALID,0,VALID,92.2726,VALID,0,VALID,23.6232,VALID,93,VALID,0,
2009-11-28, 03:26:04,VALID,1000.44,VALID,0,VALID,92.2955,VALID,0,VALID,23.5841,VALID,93,VALID,0,
2009-11-28, 03:27:04,VALID,1000.44,VALID,0,VALID,92.4405,VALID,0,VALID,23.5451,VALID,46,VALID,0.683594,
2009-11-28, 03:28:04,VALID,1000.46,VALID,0,VALID,92.8601,VALID,0,VALID,23.6232,VALID,45,VALID,0.679297,
2009-11-28, 03:29:04,VALID,1000.44,VALID,0,VALID,92.883,VALID,0,VALID,23.6622,VALID,45,VALID,0.392969,
2009-11-28, 03:30:04,VALID,1000.47,VALID,0,VALID,92.8677,VALID,0,VALID,23.6409,VALID,45,VALID,0.328516,
2009-11-28, 03:31:04,VALID,1000.45,VALID,0,VALID,92.7838,VALID,0,VALID,23.6232,VALID,45,VALID,0.0289063,
2009-11-28, 03:32:04,VALID,1000.45,VALID,0,VALID,92.7609,VALID,0,VALID,23.6019,VALID,45,VALID,0,
2009-11-28, 03:33:04,VALID,1000.47,VALID,0,VALID,92.7151,VALID,0.112286,VALID,23.5646,VALID,45,VALID,0,
2009-11-28, 03:34:04,VALID,1000.46,VALID,0,VALID,92.7609,VALID,0,VALID,23.5646,VALID,45,VALID,0,
2009-11-28, 03:35:04,VALID,1000.43,VALID,0,VALID,92.7991,VALID,0,VALID,23.5451,VALID,45,VALID,0,
2009-11-28, 03:36:04,VALID,1000.42,VALID,0,VALID,92.8372,VALID,0,VALID,23.5451,VALID,45,VALID,0,
2009-11-28, 03:37:04,VALID,1000.45,VALID,0,VALID,92.883,VALID,0,VALID,23.5451,VALID,45,VALID,0,
2009-11-28, 03:38:04,VALID,1000.47,VALID,0,VALID,92.8677,VALID,0.112286,VALID,23.5433,VALID,45,VALID,0,
2009-11-28, 03:39:04,VALID,1000.45,VALID,0,VALID,92.8677,VALID,0,VALID,23.5238,VALID,45,VALID,0,
2009-11-28, 03:40:04,VALID,1000.49,VALID,0,VALID,92.8983,VALID,0,VALID,23.5451,VALID,45,VALID,0,
2009-11-28, 03:41:04,VALID,1000.49,VALID,0,VALID,92.8372,VALID,0,VALID,23.5061,VALID,45,VALID,0,
2009-11-28, 03:42:04,VALID,1000.53,VALID,0,VALID,92.9059,VALID,0,VALID,23.4848,VALID,45,VALID,0,
2009-11-28, 03:43:04,VALID,1000.52,VALID,0,VALID,92.8983,VALID,0,VALID,23.4866,VALID,45,VALID,0,
2009-11-28, 03:44:04,VALID,1000.53,VALID,0,VALID,92.7457,VALID,0.112286,VALID,23.4263,VALID,45,VALID,0,
2009-11-28, 03:45:04,VALID,1000.51,VALID,0,VALID,92.8754,VALID,0.112286,VALID,23.3872,VALID,45,VALID,0,
2009-11-28, 03:46:04,VALID,1000.5,VALID,0,VALID,93.1195,VALID,0,VALID,23.4085,VALID,45,VALID,0,
2009-11-28, 03:47:04,VALID,1000.53,VALID,0,VALID,93.089,VALID,0,VALID,23.4493,VALID,45,VALID,0,
2009-11-28, 03:48:04,VALID,1000.5,VALID,0,VALID,93.2492,VALID,0,VALID,23.5079,VALID,45,VALID,0,
2009-11-28, 03:49:04,VALID,1000.53,VALID,0,VALID,93.3255,VALID,0,VALID,23.5274,VALID,45,VALID,0,
2009-11-28, 03:50:04,VALID,1000.52,VALID,0,VALID,93.3789,VALID,0,VALID,23.5646,VALID,45,VALID,0,
2009-11-28, 03:51:04,VALID,1000.54,VALID,0,VALID,93.295,VALID,0,VALID,23.5646,VALID,45,VALID,0,
2009-11-28, 03:52:04,VALID,1000.5,VALID,0,VALID,93.3103,VALID,0,VALID,23.5841,VALID,45,VALID,0,
2009-11-28, 03:53:04,VALID,1000.52,VALID,0,VALID,93.1958,VALID,0,VALID,23.5646,VALID,45,VALID,0,